When you browse on this site, cookies collect data to enhance your experience and personalize the content and advertising you see.
Visit our Privacy Policy to learn more. By continuing to use the site, you agree to this use of cookies and data.
  • în România
  • Lista ţărilor
  • Pe 7 zile
  • Temperatura apei
  • Meteo pe hartă
  • Widget-uri
  • user-avatar
    Intrare

    Meteo pe oră la Stirling

    Astăzi, 13 Decembrie, Vineri

    Timp Temperatura Precipitaţii Vânt Presiune Umiditate
    00:00 +4°C° 0.8 mm 2 m/s 726 mmHg 97%
    01:00 +4°C° 0.5 mm 2 m/s 726 mmHg 97%
    02:00 +4°C° 0.5 mm 2 m/s 725 mmHg 97%
    03:00 +3°C° 0.5 mm 3 m/s 725 mmHg 96%
    04:00 +3°C° 0.1 mm 3 m/s 725 mmHg 95%
    05:00 +3°C° 0.1 mm 3 m/s 725 mmHg 94%
    06:00 +3°C° 0.1 mm 3 m/s 725 mmHg 93%
    07:00 +3°C° 0.1 mm 3 m/s 726 mmHg 92%
    08:00 +3°C° 0.1 mm 3 m/s 726 mmHg 91%
    09:00 +3°C° 0.1 mm 3 m/s 727 mmHg 89%
    10:00 +3°C° 0 mm 4 m/s 727 mmHg 87%
    11:00 +4°C° 0 mm 4 m/s 727 mmHg 85%
    12:00 +4°C° 0 mm 4 m/s 728 mmHg 83%
    13:00 +4°C° 0 mm 4 m/s 728 mmHg 84%
    14:00 +4°C° 0 mm 3 m/s 728 mmHg 84%
    15:00 +4°C° 0 mm 3 m/s 728 mmHg 84%
    16:00 +3°C° 0 mm 3 m/s 728 mmHg 86%
    17:00 +2°C° 0 mm 3 m/s 729 mmHg 88%
    18:00 +3°C° 0 mm 2 m/s 729 mmHg 90%
    19:00 +3°C° 0 mm 2 m/s 729 mmHg 91%
    20:00 +3°C° 0 mm 2 m/s 728 mmHg 92%
    21:00 +2°C° 0 mm 2 m/s 728 mmHg 93%
    22:00 +3°C° 0.2 mm 2 m/s 728 mmHg 92%
    23:00 +2°C° 0.2 mm 3 m/s 728 mmHg 92%

    Mâine, 14 Decembrie, Sâmbătă

    Timp Temperatura Precipitaţii Vânt Presiune Umiditate
    00:00 +2°C° 0.2 mm 3 m/s 728 mmHg 91%
    01:00 +3°C° 0.3 mm 4 m/s 727 mmHg 90%
    02:00 +3°C° 0.3 mm 4 m/s 727 mmHg 89%
    03:00 +2°C° 0.3 mm 5 m/s 727 mmHg 87%
    04:00 +2°C° 0.2 mm 6 m/s 727 mmHg 88%
    05:00 +2°C° 0.2 mm 6 m/s 727 mmHg 89%
    06:00 +1°C° 0.2 mm 6 m/s 727 mmHg 90%
    07:00 +2°C° 0.2 mm 6 m/s 727 mmHg 86%
    08:00 +2°C° 0.2 mm 6 m/s 727 mmHg 82%
    09:00 +2°C° 0.2 mm 6 m/s 728 mmHg 78%
    10:00 +2°C° 0.1 mm 7 m/s 728 mmHg 77%
    11:00 +2°C° 0.1 mm 7 m/s 728 mmHg 76%
    12:00 +1°C° 0.1 mm 8 m/s 728 mmHg 76%
    13:00 +1°C° 0.2 mm 8 m/s 728 mmHg 79%
    14:00 +1°C° 0.2 mm 9 m/s 729 mmHg 83%
    15:00 0°C° 0.2 mm 9 m/s 729 mmHg 87%
    16:00 0°C° 0.3 mm 8 m/s 730 mmHg 84%
    17:00 0°C° 0.3 mm 7 m/s 730 mmHg 82%
    18:00 0°C° 0.3 mm 7 m/s 731 mmHg 80%
    19:00 +1°C° 0 mm 6 m/s 731 mmHg 81%
    20:00 -1°C° 0 mm 6 m/s 732 mmHg 83%
    21:00 0°C° 0 mm 5 m/s 732 mmHg 85%
    22:00 0°C° 0 mm 5 m/s 732 mmHg 84%
    23:00 0°C° 0 mm 4 m/s 732 mmHg 82%

    Poimâine, 15 Decembrie, Duminică

    Timp Temperatura Precipitaţii Vânt Presiune Umiditate
    00:00 0°C° 0 mm 4 m/s 732 mmHg 81%
    01:00 0°C° 0 mm 4 m/s 733 mmHg 81%
    02:00 -1°C° 0 mm 4 m/s 733 mmHg 80%
    03:00 -1°C° 0 mm 4 m/s 734 mmHg 80%
    04:00 -1°C° 0.1 mm 4 m/s 734 mmHg 80%
    05:00 -1°C° 0.1 mm 4 m/s 734 mmHg 79%
    06:00 -1°C° 0.1 mm 4 m/s 734 mmHg 79%
    07:00 -1°C° 0 mm 4 m/s 735 mmHg 79%
    08:00 -1°C° 0 mm 5 m/s 735 mmHg 79%
    09:00 -1°C° 0 mm 5 m/s 735 mmHg 80%
    10:00 -1°C° 0 mm 4 m/s 736 mmHg 81%
    11:00 0°C° 0 mm 4 m/s 736 mmHg 82%
    12:00 +1°C° 0 mm 3 m/s 737 mmHg 83%
    13:00 +1°C° 0.1 mm 3 m/s 737 mmHg 86%
    14:00 +2°C° 0.1 mm 2 m/s 737 mmHg 90%
    15:00 +2°C° 0.1 mm 2 m/s 738 mmHg 93%
    16:00 +2°C° 0.2 mm 2 m/s 738 mmHg 92%
    17:00 +2°C° 0.2 mm 2 m/s 738 mmHg 91%
    18:00 +2°C° 0.2 mm 2 m/s 738 mmHg 91%
    19:00 +2°C° 0 mm 2 m/s 739 mmHg 91%
    20:00 +2°C° 0 mm 2 m/s 739 mmHg 90%
    21:00 +3°C° 0 mm 1 m/s 740 mmHg 90%
    22:00 +2°C° 0 mm 1 m/s 740 mmHg 90%
    23:00 +2°C° 0 mm 1 m/s 740 mmHg 89%

    16 Decembrie, Luni

    Timp Temperatura Precipitaţii Vânt Presiune Umiditate
    00:00 +2°C° 0 mm 1 m/s 740 mmHg 89%
    01:00 +2°C° 0 mm 1 m/s 740 mmHg 90%
    02:00 +2°C° 0 mm 1 m/s 740 mmHg 90%
    03:00 +1°C° 0 mm 0 m/s 740 mmHg 91%
    04:00 +2°C° 0.1 mm 1 m/s 740 mmHg 91%
    05:00 +2°C° 0.1 mm 1 m/s 740 mmHg 92%
    06:00 +2°C° 0.1 mm 1 m/s 740 mmHg 92%
    07:00 +2°C° 0.3 mm 1 m/s 740 mmHg 93%
    08:00 +2°C° 0.3 mm 1 m/s 741 mmHg 94%
    09:00 +3°C° 0.3 mm 1 m/s 742 mmHg 95%
    10:00 +3°C° 0.2 mm 1 m/s 742 mmHg 94%
    11:00 +3°C° 0.2 mm 1 m/s 743 mmHg 94%
    12:00 +3°C° 0.2 mm 1 m/s 743 mmHg 94%
    13:00 +3°C° 0 mm 1 m/s 744 mmHg 93%
    14:00 +2°C° 0 mm 2 m/s 744 mmHg 93%
    15:00 +2°C° 0 mm 2 m/s 745 mmHg 93%
    16:00 +2°C° 0 mm 2 m/s 746 mmHg 93%
    17:00 +1°C° 0 mm 2 m/s 746 mmHg 93%
    18:00 +2°C° 0 mm 1 m/s 747 mmHg 93%
    19:00 +2°C° 0 mm 1 m/s 747 mmHg 93%
    20:00 +2°C° 0 mm 1 m/s 748 mmHg 92%
    21:00 +1°C° 0 mm 1 m/s 749 mmHg 91%
    22:00 +1°C° 0 mm 1 m/s 749 mmHg 91%
    23:00 +1°C° 0 mm 1 m/s 749 mmHg 91%

    17 Decembrie, Marţi

    Timp Temperatura Precipitaţii Vânt Presiune Umiditate
    00:00 0°C° 0 mm 0 m/s 749 mmHg 90%
    01:00 0°C° 0 mm 0 m/s 749 mmHg 91%
    02:00 0°C° 0 mm 0 m/s 749 mmHg 91%
    03:00 0°C° 0 mm 0 m/s 750 mmHg 91%
    04:00 0°C° 0 mm 0 m/s 750 mmHg 91%
    05:00 0°C° 0 mm 0 m/s 750 mmHg 91%
    06:00 0°C° 0 mm 0 m/s 750 mmHg 91%
    07:00 0°C° 0 mm 0 m/s 750 mmHg 92%
    08:00 0°C° 0 mm 0 m/s 751 mmHg 92%
    09:00 0°C° 0 mm 0 m/s 751 mmHg 92%
    10:00 +1°C° 0 mm 0 m/s 751 mmHg 91%
    11:00 +2°C° 0 mm 0 m/s 751 mmHg 89%
    12:00 +2°C° 0 mm 0 m/s 751 mmHg 88%
    13:00 +2°C° 0 mm 0 m/s 752 mmHg 89%
    14:00 +2°C° 0 mm 0 m/s 752 mmHg 90%
    15:00 +1°C° 0 mm 0 m/s 752 mmHg 91%
    16:00 +1°C° 0 mm 0 m/s 753 mmHg 92%
    17:00 +1°C° 0 mm 0 m/s 753 mmHg 92%
    18:00 +1°C° 0 mm 0 m/s 753 mmHg 92%
    19:00 +1°C° 0 mm 0 m/s 754 mmHg 92%
    20:00 +2°C° 0 mm 1 m/s 754 mmHg 92%
    21:00 +2°C° 0 mm 1 m/s 755 mmHg 92%
    22:00 +2°C° 0 mm 1 m/s 755 mmHg 92%
    23:00 +2°C° 0 mm 1 m/s 756 mmHg 92%

    18 Decembrie, Miercuri

    Timp Temperatura Precipitaţii Vânt Presiune Umiditate
    00:00 +2°C° 0 mm 1 m/s 756 mmHg 92%
    01:00 +2°C° 0 mm 1 m/s 756 mmHg 92%
    02:00 +2°C° 0 mm 1 m/s 757 mmHg 93%
    03:00 +2°C° 0 mm 1 m/s 757 mmHg 93%
    04:00 +2°C° 0 mm 1 m/s 757 mmHg 93%
    05:00 +2°C° 0 mm 1 m/s 757 mmHg 93%
    06:00 +2°C° 0 mm 1 m/s 757 mmHg 93%
    07:00 +2°C° 0 mm 1 m/s 757 mmHg 93%
    08:00 +2°C° 0 mm 1 m/s 758 mmHg 93%
    09:00 +3°C° 0 mm 1 m/s 758 mmHg 93%
    10:00 +3°C° 0 mm 1 m/s 758 mmHg 93%
    11:00 +4°C° 0 mm 1 m/s 758 mmHg 93%
    12:00 +5°C° 0 mm 1 m/s 758 mmHg 92%
    13:00 +4°C° 0 mm 1 m/s 758 mmHg 93%
    14:00 +4°C° 0 mm 1 m/s 758 mmHg 93%
    15:00 +4°C° 0 mm 1 m/s 757 mmHg 93%
    16:00 +3°C° 0 mm 1 m/s 757 mmHg 93%
    17:00 +3°C° 0 mm 1 m/s 757 mmHg 93%
    18:00 +3°C° 0 mm 1 m/s 757 mmHg 94%
    19:00 +3°C° 0 mm 1 m/s 757 mmHg 93%
    20:00 +3°C° 0 mm 1 m/s 757 mmHg 93%
    21:00 +2°C° 0 mm 1 m/s 757 mmHg 93%
    22:00 +2°C° 0 mm 1 m/s 757 mmHg 93%
    23:00 +2°C° 0 mm 1 m/s 756 mmHg 93%
    Arată mai mult